Time,TemperatureF,DewpointF,PressureIn,WindDirection,WindDirectionDegrees,WindSpeedMPH,WindSpeedGustMPH,Humidity,HourlyPrecipIn,Conditions,Clouds,dailyrainin,SolarRadiationWatts/m^2,SoftwareType,DateUTC
2013-02-17 00:52:00,29.0,6.0,-100.00,NNE,16,5.0,19.0,37,0.00,,,0.00,0.000000,,2013-02-17 05:52:00,
2013-02-17 01:02:00,29.0,6.0,-100.00,NNE,16,5.0,19.0,37,0.00,,,0.00,0.000000,,2013-02-17 06:02:00,
2013-02-17 01:11:00,29.0,6.0,-100.00,NNE,16,5.0,19.0,37,0.00,,,0.00,0.000000,,2013-02-17 06:11:00,
2013-02-17 01:21:00,29.0,6.0,-100.00,NNE,16,5.0,19.0,37,0.00,,,0.00,0.000000,,2013-02-17 06:21:00,
2013-02-17 01:52:00,28.0,4.0,-100.00,NNE,17,5.0,18.0,35,0.00,,,0.00,0.000000,,2013-02-17 06:52:00,
2013-02-17 02:01:00,28.0,4.0,-100.00,NNE,17,5.0,18.0,35,0.00,,,0.00,0.000000,,2013-02-17 07:01:00,
2013-02-17 02:11:00,28.0,4.0,-100.00,NNE,17,5.0,18.0,35,0.00,,,0.00,0.000000,,2013-02-17 07:11:00,
2013-02-17 02:21:00,28.0,4.0,-100.00,NNE,17,5.0,18.0,35,0.00,,,0.00,0.000000,,2013-02-17 07:21:00,
2013-02-17 02:52:00,28.0,4.0,-100.00,North,5,5.0,13.0,35,0.00,,,0.00,0.000000,,2013-02-17 07:52:00,
2013-02-17 03:01:00,28.0,4.0,-100.00,North,5,5.0,13.0,35,0.00,,,0.00,0.000000,,2013-02-17 08:01:00,
2013-02-17 03:11:00,28.0,4.0,-100.00,North,5,5.0,13.0,35,0.00,,,0.00,0.000000,,2013-02-17 08:11:00,
2013-02-17 03:22:00,28.0,4.0,-100.00,North,5,5.0,13.0,35,0.00,,,0.00,0.000000,,2013-02-17 08:22:00,
2013-02-17 03:52:00,27.0,3.0,-100.00,North,350,6.0,15.0,35,0.00,,,0.00,0.000000,,2013-02-17 08:52:00,
2013-02-17 04:02:00,27.0,3.0,-100.00,North,350,6.0,15.0,35,0.00,,,0.00,0.000000,,2013-02-17 09:02:00,
2013-02-17 04:11:00,27.0,3.0,-100.00,North,350,6.0,15.0,35,0.00,,,0.00,0.000000,,2013-02-17 09:11:00,
2013-02-17 04:21:00,27.0,3.0,-100.00,North,350,6.0,15.0,35,0.00,,,0.00,0.000000,,2013-02-17 09:21:00,
2013-02-17 04:52:00,26.0,6.0,-100.00,North,350,7.0,18.0,41,0.00,,,0.00,0.000000,,2013-02-17 09:52:00,
2013-02-17 05:01:00,26.0,6.0,-100.00,North,350,7.0,18.0,41,0.00,,,0.00,0.000000,,2013-02-17 10:01:00,
2013-02-17 05:11:00,26.0,6.0,-100.00,North,350,7.0,18.0,41,0.00,,,0.00,0.000000,,2013-02-17 10:11:00,
2013-02-17 05:21:00,26.0,6.0,-100.00,North,350,7.0,18.0,41,0.00,,,0.00,0.000000,,2013-02-17 10:21:00,
2013-02-17 05:52:00,24.0,13.0,-100.00,North,349,7.0,23.0,62,0.00,,,0.00,0.000000,,2013-02-17 10:52:00,
2013-02-17 06:01:00,24.0,13.0,-100.00,North,349,7.0,23.0,62,0.00,,,0.00,0.000000,,2013-02-17 11:01:00,
2013-02-17 06:11:00,24.0,13.0,-100.00,North,349,7.0,23.0,62,0.00,,,0.00,0.000000,,2013-02-17 11:11:00,
2013-02-17 06:22:00,24.0,13.0,-100.00,North,349,7.0,23.0,62,0.00,,,0.00,0.000000,,2013-02-17 11:22:00,
2013-02-17 06:53:00,22.0,17.0,-100.00,NNW,330,6.0,20.0,82,0.00,,,0.00,0.000000,,2013-02-17 11:53:00,
2013-02-17 07:03:00,22.0,17.0,-100.00,NNW,330,6.0,20.0,82,0.00,,,0.00,0.000000,,2013-02-17 12:03:00,
2013-02-17 07:11:00,22.0,17.0,-100.00,NNW,330,6.0,20.0,82,0.00,,,0.00,0.000000,,2013-02-17 12:11:00,
2013-02-17 07:22:00,22.0,17.0,-100.00,NNW,330,6.0,20.0,82,0.00,,,0.00,0.000000,,2013-02-17 12:22:00,
2013-02-17 07:52:00,22.0,18.0,-100.00,NW,324,8.0,20.0,85,0.00,,,0.00,4.000000,,2013-02-17 12:52:00,
2013-02-17 08:02:00,22.0,18.0,-100.00,NW,324,8.0,20.0,85,0.00,,,0.00,4.000000,,2013-02-17 13:02:00,
2013-02-17 08:12:00,22.0,18.0,-100.00,NW,324,8.0,20.0,85,0.00,,,0.00,4.000000,,2013-02-17 13:12:00,
2013-02-17 08:22:00,22.0,18.0,-100.00,NW,324,8.0,20.0,85,0.00,,,0.00,4.000000,,2013-02-17 13:22:00,
2013-02-17 08:52:00,21.0,18.0,-100.00,NW,321,7.0,22.0,88,0.00,,,-99.99,23.000000,,2013-02-17 13:52:00,
2013-02-17 09:01:00,21.0,18.0,-100.00,NW,321,7.0,22.0,88,0.00,,,-99.99,23.000000,,2013-02-17 14:01:00,
2013-02-17 09:11:00,21.0,18.0,-100.00,NW,321,7.0,22.0,88,0.00,,,-99.99,23.000000,,2013-02-17 14:11:00,
2013-02-17 09:22:00,21.0,18.0,-100.00,NW,321,7.0,22.0,88,0.00,,,-99.99,23.000000,,2013-02-17 14:22:00,
2013-02-17 09:53:00,22.0,19.0,-100.00,NW,319,7.0,18.0,88,0.00,,,0.00,48.000000,,2013-02-17 14:53:00,
2013-02-17 10:02:00,22.0,19.0,-100.00,NW,319,7.0,18.0,88,0.00,,,0.00,48.000000,,2013-02-17 15:02:00,
2013-02-17 10:11:00,22.0,19.0,-100.00,NW,319,7.0,18.0,88,0.00,,,0.00,48.000000,,2013-02-17 15:11:00,
2013-02-17 10:22:00,22.0,19.0,-100.00,NW,319,7.0,18.0,88,0.00,,,0.00,48.000000,,2013-02-17 15:22:00,
2013-02-17 10:52:00,22.0,19.0,-100.00,NW,326,8.0,20.0,87,0.00,,,0.00,70.000000,,2013-02-17 15:52:00,
2013-02-17 11:02:00,22.0,19.0,-100.00,NW,326,8.0,20.0,87,0.00,,,0.00,70.000000,,2013-02-17 16:02:00,
2013-02-17 11:12:00,22.0,19.0,-100.00,NW,326,8.0,20.0,87,0.00,,,0.00,70.000000,,2013-02-17 16:12:00,
2013-02-17 11:21:00,22.0,19.0,-100.00,NW,326,8.0,20.0,87,0.00,,,0.00,70.000000,,2013-02-17 16:21:00,
2013-02-17 11:52:00,23.0,19.0,-100.00,NW,322,8.0,19.0,84,0.00,,,0.00,92.000000,,2013-02-17 16:52:00,
2013-02-17 12:02:00,23.0,19.0,-100.00,NW,322,8.0,19.0,84,0.00,,,0.00,92.000000,,2013-02-17 17:02:00,
2013-02-17 12:11:00,23.0,19.0,-100.00,NW,322,8.0,19.0,84,0.00,,,0.00,92.000000,,2013-02-17 17:11:00,
2013-02-17 12:21:00,23.0,19.0,-100.00,NW,322,8.0,19.0,84,0.00,,,0.00,92.000000,,2013-02-17 17:21:00,
2013-02-17 12:52:00,23.0,18.0,-100.00,NW,319,9.0,21.0,82,0.00,,,0.00,120.000000,,2013-02-17 17:52:00,
2013-02-17 13:02:00,23.0,18.0,-100.00,NW,319,9.0,21.0,82,0.00,,,0.00,120.000000,,2013-02-17 18:02:00,
2013-02-17 13:11:00,23.0,18.0,-100.00,NW,319,9.0,21.0,82,0.00,,,0.00,120.000000,,2013-02-17 18:11:00,
2013-02-17 13:22:00,23.0,18.0,-100.00,NW,319,9.0,21.0,82,0.00,,,0.00,120.000000,,2013-02-17 18:22:00,
2013-02-17 13:52:00,23.0,18.0,-100.00,NW,314,8.0,23.0,80,0.00,,,0.00,144.000000,,2013-02-17 18:52:00,
2013-02-17 14:02:00,23.0,18.0,-100.00,NW,314,8.0,23.0,80,0.00,,,0.00,144.000000,,2013-02-17 19:02:00,
2013-02-17 14:11:00,23.0,18.0,-100.00,NW,314,8.0,23.0,80,0.00,,,0.00,144.000000,,2013-02-17 19:11:00,
2013-02-17 14:22:00,23.0,18.0,-100.00,NW,314,8.0,23.0,80,0.00,,,0.00,144.000000,,2013-02-17 19:22:00,
2013-02-17 14:52:00,23.0,15.0,-100.00,NW,312,10.0,25.0,72,0.00,,,0.00,143.000000,,2013-02-17 19:52:00,
2013-02-17 15:02:00,23.0,15.0,-100.00,NW,312,10.0,25.0,72,0.00,,,0.00,143.000000,,2013-02-17 20:02:00,
2013-02-17 15:11:00,23.0,15.0,-100.00,NW,312,10.0,25.0,72,0.00,,,0.00,143.000000,,2013-02-17 20:11:00,
2013-02-17 15:22:00,23.0,15.0,-100.00,NW,312,10.0,25.0,72,0.00,,,0.00,143.000000,,2013-02-17 20:22:00,
2013-02-17 15:52:00,22.0,9.0,-100.00,WNW,303,9.0,24.0,57,0.00,,,0.00,110.000000,,2013-02-17 20:52:00,
2013-02-17 16:02:00,22.0,9.0,-100.00,WNW,303,9.0,24.0,57,0.00,,,0.00,110.000000,,2013-02-17 21:02:00,
2013-02-17 16:11:00,22.0,9.0,-100.00,WNW,303,9.0,24.0,57,0.00,,,0.00,110.000000,,2013-02-17 21:11:00,
2013-02-17 16:21:00,22.0,9.0,-100.00,WNW,303,9.0,24.0,57,0.00,,,0.00,110.000000,,2013-02-17 21:21:00,
2013-02-17 16:53:00,22.0,6.0,-100.00,NW,306,10.0,23.0,49,0.00,,,0.00,51.000000,,2013-02-17 21:53:00,
2013-02-17 17:01:00,22.0,6.0,-100.00,NW,306,10.0,23.0,49,0.00,,,0.00,51.000000,,2013-02-17 22:01:00,
2013-02-17 17:12:00,22.0,6.0,-100.00,NW,306,10.0,23.0,49,0.00,,,0.00,51.000000,,2013-02-17 22:12:00,
2013-02-17 17:22:00,22.0,6.0,-100.00,NW,306,10.0,23.0,49,0.00,,,0.00,51.000000,,2013-02-17 22:22:00,
2013-02-17 17:52:00,20.0,2.0,-100.00,WNW,299,11.0,26.0,45,0.00,,,0.00,11.000000,,2013-02-17 22:52:00,
2013-02-17 18:02:00,20.0,2.0,-100.00,WNW,299,11.0,26.0,45,0.00,,,0.00,11.000000,,2013-02-17 23:02:00,
2013-02-17 18:11:00,20.0,2.0,-100.00,WNW,299,11.0,26.0,45,0.00,,,0.00,11.000000,,2013-02-17 23:11:00,
2013-02-17 18:21:00,20.0,2.0,-100.00,WNW,299,11.0,26.0,45,0.00,,,0.00,11.000000,,2013-02-17 23:21:00,
2013-02-17 18:52:00,19.0,1.0,-100.00,NW,310,10.0,25.0,44,0.00,,,0.00,0.000000,,2013-02-17 23:52:00,
2013-02-17 19:02:00,19.0,1.0,-100.00,NW,310,10.0,25.0,44,0.00,,,0.00,0.000000,,2013-02-18 00:02:00,
2013-02-17 19:12:00,19.0,1.0,-100.00,NW,310,10.0,25.0,44,0.00,,,0.00,0.000000,,2013-02-18 00:12:00,
2013-02-17 19:22:00,19.0,1.0,-100.00,NW,310,10.0,25.0,44,0.00,,,0.00,0.000000,,2013-02-18 00:22:00,
2013-02-17 19:52:00,18.0,0.0,-100.00,NW,304,10.0,30.0,44,0.00,,,0.00,0.000000,,2013-02-18 00:52:00,
2013-02-17 20:01:00,18.0,0.0,-100.00,NW,304,10.0,30.0,44,0.00,,,0.00,0.000000,,2013-02-18 01:01:00,
2013-02-17 20:12:00,18.0,0.0,-100.00,NW,304,10.0,30.0,44,0.00,,,0.00,0.000000,,2013-02-18 01:12:00,
2013-02-17 20:21:00,18.0,0.0,-100.00,NW,304,10.0,30.0,44,0.00,,,0.00,0.000000,,2013-02-18 01:21:00,
2013-02-17 20:52:00,18.0,0.0,-100.00,NW,308,9.0,29.0,44,0.00,,,0.00,0.000000,,2013-02-18 01:52:00,
2013-02-17 21:02:00,18.0,0.0,-100.00,NW,308,9.0,29.0,44,0.00,,,0.00,0.000000,,2013-02-18 02:02:00,
2013-02-17 21:11:00,18.0,0.0,-100.00,NW,308,9.0,29.0,44,0.00,,,0.00,0.000000,,2013-02-18 02:11:00,
2013-02-17 21:22:00,18.0,0.0,-100.00,NW,308,9.0,29.0,44,0.00,,,0.00,0.000000,,2013-02-18 02:22:00,
2013-02-17 21:52:00,18.0,0.0,-100.00,NW,307,8.0,25.0,44,0.00,,,0.00,0.000000,,2013-02-18 02:52:00,
2013-02-17 22:02:00,18.0,0.0,-100.00,NW,307,8.0,25.0,44,0.00,,,0.00,0.000000,,2013-02-18 03:02:00,
2013-02-17 22:11:00,18.0,0.0,-100.00,NW,307,8.0,25.0,44,0.00,,,0.00,0.000000,,2013-02-18 03:11:00,
2013-02-17 22:22:00,18.0,0.0,-100.00,NW,307,8.0,25.0,44,0.00,,,0.00,0.000000,,2013-02-18 03:22:00,
2013-02-17 22:52:00,17.0,-1.0,-100.00,WNW,294,10.0,29.0,44,0.00,,,0.00,0.000000,,2013-02-18 03:52:00,
2013-02-17 23:01:00,17.0,-1.0,-100.00,WNW,294,10.0,29.0,44,0.00,,,0.00,0.000000,,2013-02-18 04:01:00,
2013-02-17 23:11:00,17.0,-1.0,-100.00,WNW,294,10.0,29.0,44,0.00,,,0.00,0.000000,,2013-02-18 04:11:00,
2013-02-17 23:21:00,17.0,-1.0,-100.00,WNW,294,10.0,29.0,44,0.00,,,0.00,0.000000,,2013-02-18 04:21:00,
2013-02-17 23:52:00,17.0,-1.0,-100.00,NW,305,9.0,25.0,45,0.00,,,0.00,0.000000,,2013-02-18 04:52:00,